Falfurrias, TX

11:09 PM CST on December 05, 2019 (GMT -0600)
Falfurrias

Weather History for KBKS - November, 2019

Change the Weather History Date:

Friday, November 15, 2019

  Actual Average (KNQI) Record (KNQI)
Temperature  
Mean Temperature 56 °F -  
Max Temperature 67 °F 74 °F 91 °F (2005)
Min Temperature 45 °F 55 °F 32 °F (2018)
Degree Days  
Heating Degree Days 9    
Growing Degree Days 6 (Base 50)    
Moisture  
Dew Point 39 °F    
Average Humidity 56    
Maximum Humidity 83    
Minimum Humidity 30    
Precipitation  
Precipitation 0.00 in - - ()
Sea Level Pressure  
Sea Level Pressure 30.35 in    
Wind  
Wind Speed 7 mph ()    
Max Wind Speed 15 mph    
Max Gust Speed 21 mph    
Visibility 10.0 miles    
Events      
Averages and records for this station are not official NWS values.
T = Trace of Precipitation, MM = Missing Value Source: Averaged Metar Reports

Daily Weather History Graph

Daily Weather History Graph

Search for Another Location

Airport or City:

Astronomy

Nov. 15, 2019 Rise Set
Actual Time 6:52 AM CST 5:41 PM CST
Civil Twilight 6:27 AM CST 6:05 PM CST
Nautical Twilight 5:59 AM CST 6:33 PM CST
Astronomical Twilight 5:32 AM CST 7:01 PM CST
Moon 8:27 PM CST (11/15) 9:41 AM CST (11/15)
Length of Visible Light 11h 37m
Length of Day
10h 48m
Waning Gibbous, 90% of the Moon is Illuminated
Nov 15
Waning Gibbous
Nov 19
Last Quarter
Nov 26
New
Dec 4
First Quarter
Dec 11
Full

Hourly Weather History & Observations

Time (CST) Temp. Dew Point Humidity Pressure Visibility Wind Dir Wind Speed Gust Speed Precip Events Conditions
12:10 AM 50.9 °F 44.8 °F 80% 30.38 in 10.0 mi NNW 10.4 mph - N/A   Overcast
12:35 AM 50.9 °F 45.1 °F 81% 30.38 in 10.0 mi NNW 8.1 mph - N/A   Overcast
12:55 AM 51.3 °F 45.1 °F 80% 30.38 in 10.0 mi NNW 6.9 mph - N/A   Overcast
1:15 AM 51.8 °F 44.6 °F 76% 30.38 in 10.0 mi NNW 8.1 mph - N/A   Overcast
1:55 AM 51.3 °F 43.7 °F 75% 30.38 in 10.0 mi North 8.1 mph - N/A   Overcast
2:15 AM 51.3 °F 43.7 °F 75% 30.37 in 10.0 mi NNW 8.1 mph - N/A   Overcast
2:35 AM 51.4 °F 42.8 °F 72% 30.37 in 10.0 mi NNW 8.1 mph - N/A   Overcast
2:55 AM 51.4 °F 42.8 °F 72% 30.37 in 10.0 mi NNW 9.2 mph - N/A   Overcast
3:35 AM 51.4 °F 41.7 °F 69% 30.37 in 10.0 mi NNW 10.4 mph - N/A   Overcast
3:50 AM 51.8 °F 41.4 °F 68% 30.37 in 10.0 mi NNW 8.1 mph - N/A   Overcast
4:15 AM 51.8 °F 41.0 °F 67% 30.37 in 10.0 mi NNW 6.9 mph - N/A   Overcast
4:35 AM 51.8 °F 41.0 °F 67% 30.37 in 10.0 mi North 10.4 mph 16.1 mph N/A   Overcast
4:55 AM 51.8 °F 41.0 °F 67% 30.37 in 10.0 mi North 10.4 mph - N/A   Overcast
5:15 AM 51.4 °F 40.5 °F 66% 30.38 in 10.0 mi North 9.2 mph - N/A   Overcast
5:35 AM 51.1 °F 40.3 °F 67% 30.38 in 10.0 mi North 11.5 mph - N/A   Overcast
5:55 AM 50.9 °F 40.3 °F 67% 30.39 in 10.0 mi North 11.5 mph - N/A   Overcast
6:15 AM 50.9 °F 40.1 °F 67% 30.39 in 10.0 mi North 9.2 mph - N/A   Overcast
6:35 AM 50.7 °F 40.1 °F 67% 30.40 in 10.0 mi North 9.2 mph - N/A   Overcast
6:55 AM 49.8 °F 39.4 °F 67% 30.40 in 10.0 mi North 10.4 mph 16.1 mph N/A   Mostly Cloudy
7:15 AM 48.7 °F 39.2 °F 70% 30.41 in 10.0 mi NNW 5.8 mph - N/A   Clear
7:35 AM 48.7 °F 39.2 °F 70% 30.41 in 10.0 mi NNW 5.8 mph - N/A   Clear
7:55 AM 51.1 °F 38.5 °F 62% 30.42 in 10.0 mi NNW 8.1 mph - N/A   Clear
8:15 AM 52.7 °F 37.6 °F 56% 30.42 in 10.0 mi North 11.5 mph - N/A   Clear
8:35 AM 54.3 °F 36.9 °F 52% 30.43 in 10.0 mi North 10.4 mph - N/A   Clear
8:55 AM 55.0 °F 36.0 °F 49% 30.43 in 10.0 mi North 13.8 mph 18.4 mph N/A   Clear
9:15 AM 56.7 °F 34.9 °F 44% 30.43 in 10.0 mi North 13.8 mph 19.6 mph N/A   Clear
9:35 AM 57.2 °F 36.7 °F 46% 30.44 in 10.0 mi North 15.0 mph 20.7 mph N/A   Clear
10:15 AM 58.6 °F 36.7 °F 44% 30.43 in 10.0 mi North 11.5 mph 18.4 mph N/A   Clear
10:35 AM 59.0 °F 36.5 °F 43% 30.42 in 10.0 mi North 13.8 mph - N/A   Clear
10:55 AM 59.9 °F 35.6 °F 40% 30.42 in 10.0 mi North 9.2 mph 18.4 mph N/A   Clear
11:15 AM 60.8 °F 35.1 °F 38% 30.41 in 10.0 mi North 10.4 mph - N/A   Clear
11:35 AM 61.5 °F 34.5 °F 36% 30.40 in 10.0 mi NNE 5.8 mph - N/A   Clear
11:55 AM 62.1 °F 35.1 °F 37% 30.39 in 10.0 mi NNW 6.9 mph - N/A   Clear
12:15 PM 62.8 °F 33.8 °F 34% 30.38 in 10.0 mi North 8.1 mph - N/A   Clear
12:35 PM 63.5 °F 33.8 °F 33% 30.37 in 10.0 mi North 5.8 mph 18.4 mph N/A   Clear
12:55 PM 64.0 °F 34.0 °F 33% 30.36 in 10.0 mi North 8.1 mph - N/A   Clear
1:15 PM 64.2 °F 33.3 °F 32% 30.34 in 10.0 mi NNE 4.6 mph 18.4 mph N/A   Clear
1:35 PM 64.9 °F 33.3 °F 31% 30.33 in 10.0 mi NNW 3.5 mph 16.1 mph N/A   Clear
1:55 PM 66.0 °F 33.3 °F 30% 30.32 in 10.0 mi North 9.2 mph - N/A   Clear
2:15 PM 65.8 °F 33.8 °F 30% 30.31 in 10.0 mi North 11.5 mph - N/A   Clear
2:35 PM 67.1 °F 34.9 °F 30% 30.30 in 10.0 mi North 9.2 mph - N/A   Clear
2:55 PM 66.2 °F 33.4 °F 30% 30.29 in 10.0 mi North 3.5 mph 19.6 mph N/A   Clear
3:15 PM 67.1 °F 34.7 °F 30% 30.29 in 10.0 mi NNW 9.2 mph - N/A   Clear
3:35 PM 67.1 °F 34.7 °F 30% 30.29 in 10.0 mi North 3.5 mph - N/A   Clear
3:55 PM 66.9 °F 34.9 °F 31% 30.28 in 10.0 mi North 5.8 mph - N/A   Clear
4:15 PM 67.3 °F 34.9 °F 30% 30.27 in 10.0 mi North 4.6 mph - N/A   Clear
4:35 PM 66.6 °F 35.1 °F 31% 30.27 in 10.0 mi NNE 6.9 mph - N/A   Clear
4:55 PM 66.2 °F 35.2 °F 32% 30.27 in 10.0 mi North 6.9 mph - N/A   Clear
5:15 PM 64.9 °F 35.6 °F 34% 30.27 in 10.0 mi NE 3.5 mph - N/A   Clear
5:35 PM 63.0 °F 36.7 °F 38% 30.28 in 10.0 mi NE 4.6 mph - N/A   Clear
5:55 PM 60.3 °F 38.3 °F 44% 30.28 in 10.0 mi ENE 5.8 mph - N/A   Clear
6:15 PM 58.5 °F 39.2 °F 49% 30.29 in 10.0 mi East 3.5 mph - N/A   Clear
6:35 PM 57.0 °F 39.2 °F 51% 30.29 in 10.0 mi East 4.6 mph - N/A   Clear
6:55 PM 55.8 °F 39.2 °F 54% 30.29 in 10.0 mi East 4.6 mph - N/A   Clear
7:15 PM 54.7 °F 39.4 °F 56% 30.30 in 10.0 mi ESE 3.5 mph - N/A   Clear
7:35 PM 53.4 °F 39.7 °F 60% 30.30 in 10.0 mi ESE 3.5 mph - N/A   Clear
7:55 PM 52.7 °F 40.3 °F 63% 30.31 in 10.0 mi Calm Calm - N/A   Clear
8:15 PM 51.3 °F 40.8 °F 67% 30.31 in 10.0 mi ESE 3.5 mph - N/A   Clear
8:35 PM 51.8 °F 40.5 °F 65% 30.31 in 10.0 mi East 3.5 mph - N/A   Clear
8:55 PM 50.0 °F 40.6 °F 70% 30.31 in 10.0 mi East 3.5 mph - N/A   Clear
9:15 PM 49.6 °F 41.0 °F 72% 30.31 in 10.0 mi Calm Calm - N/A   Clear
9:55 PM 48.6 °F 41.2 °F 76% 30.31 in 10.0 mi Calm Calm - N/A   Clear
10:15 PM 47.7 °F 41.0 °F 78% 30.30 in 10.0 mi Calm Calm - N/A   Clear
10:35 PM 47.3 °F 40.6 °F 78% 30.30 in 10.0 mi Calm Calm - N/A   Clear
10:55 PM 46.8 °F 41.0 °F 80% 30.30 in 10.0 mi West 3.5 mph - N/A   Clear
11:15 PM 46.2 °F 40.3 °F 80% 30.29 in 10.0 mi Calm Calm - N/A   Clear
11:35 PM 45.7 °F 40.6 °F 83% 30.29 in 10.0 mi Calm Calm - N/A   Clear
11:55 PM 46.0 °F 40.6 °F 81% 30.29 in 10.0 mi Calm Calm - N/A   Clear